Weather History for Rockwall, TX

Change the Weather History Date:

Friday, November 22, 2013

  Actual Average (KDFW) Record (KDFW)
Temperature  
Mean Temperature 38 °F 54 °F  
Max Temperature 43 °F 64 °F 89 °F (1955)
Min Temperature 34 °F 44 °F 23 °F (1898)
Degree Days  
Heating Degree Days 26 12  
Month to date heating degree days 176  
Since 1 July heating degree days 248  
Cooling Degree Days 0 0  
Month to date cooling degree days 27  
Year to date cooling degree days 2750  
Moisture  
Dew Point 35 °F    
Average Humidity 94    
Maximum Humidity 97    
Minimum Humidity 90    
Precipitation  
Precipitation 0.07 in 0.07 in 1.89 in (1913)
Month to date precipitation 2.11  
Year to date precipitation 32.99  
Snow  
Snow 0.00 in 0.00 in 5.00 in (1937)
Month to date snowfall 0.0  
Since 1 July snowfall 0.0  
Since 1 September snowfall 0.0  
Snow Depth -    
Sea Level Pressure  
Sea Level Pressure 30.34 in    
Wind  
Wind Speed 16 mph (North)    
Max Wind Speed 24 mph    
Max Gust Speed 31 mph    
Visibility 7 miles    
Events Rain , Thunderstorm    
T = Trace of Precipitation, MM = Missing Value Source: NWS Daily Summary

Daily Weather History Graph

Daily Weather History Graph

Search for Another Location

Airport:

Trip Planner

Search our weather history database for the weather conditions in past years. The results will help you decide how hot, cold, wet, or windy it might be!

Date:

Astronomy

Nov. 22, 2013 Rise Set
Actual Time 7:02 AM CST 5:20 PM CST
Civil Twilight 6:36 AM CST 5:47 PM CST
Nautical Twilight 6:06 AM CST 6:17 PM CST
Astronomical Twilight 5:36 AM CST 6:47 PM CST
Moon 9:49 PM CST (11/22) 10:50 AM CST (11/22)
Length of Visible Light 11h 11m
Length of Day
10h 18m
Waning Gibbous, 78% of the Moon is Illuminated
Nov 22
Waning Gibbous
Nov 25
Last Quarter
Dec 2
New
Dec 9
First Quarter
Dec 17
Full

Hourly Weather History & Observations

Time (CST) Temp. Windchill Dew Point Humidity Pressure Visibility Wind Dir Wind Speed Gust Speed Precip Events Conditions
12:15 AM 43.5 °F 35.2 °F 42.6 °F 97% 30.19 in 10.0 mi NNW 19.6 mph 26.5 mph N/A Thunderstorm Overcast
12:35 AM 42.1 °F 32.3 °F 41.2 °F 97% 30.19 in 10.0 mi NNW 24.2 mph 29.9 mph N/A Thunderstorm Overcast
12:55 AM 41.9 °F 33.7 °F 41.0 °F 97% 30.21 in 10.0 mi North 17.3 mph 28.8 mph N/A   Overcast
1:15 AM 41.2 °F 32.1 °F 40.3 °F 97% 30.21 in 10.0 mi NNW 19.6 mph 26.5 mph N/A Thunderstorm Overcast
1:35 AM 41.0 °F 32.5 °F 40.1 °F 97% 30.24 in 10.0 mi North 17.3 mph 25.3 mph N/A Thunderstorm Overcast
1:55 AM 41.0 °F 33.1 °F 39.9 °F 96% 30.24 in 10.0 mi NNW 15.0 mph 23.0 mph N/A   Overcast
2:15 AM 40.8 °F 34.1 °F 39.4 °F 95% 30.24 in 10.0 mi North 11.5 mph 24.2 mph N/A Thunderstorm Overcast
2:35 AM 41.0 °F 32.5 °F 38.5 °F 91% 30.22 in 10.0 mi North 17.3 mph 31.1 mph N/A   Overcast
2:55 AM 41.0 °F 32.5 °F 38.3 °F 90% 30.24 in 10.0 mi North 17.3 mph 27.6 mph N/A   Overcast
3:15 AM 39.7 °F 30.9 °F 37.9 °F 93% 30.25 in 5.0 mi North 17.3 mph 24.2 mph N/A   Overcast
3:35 AM 39.9 °F 31.8 °F 37.9 °F 93% 30.25 in 5.0 mi North 15.0 mph 26.5 mph N/A   Light Drizzle
3:55 AM 39.2 °F 30.5 °F 37.4 °F 93% 30.26 in 4.0 mi North 16.1 mph 31.1 mph N/A   Overcast
4:15 AM 38.8 °F 30.0 °F 37.0 °F 93% 30.26 in 5.0 mi North 16.1 mph 25.3 mph N/A   Overcast
4:35 AM 38.7 °F 29.1 °F 36.7 °F 93% 30.27 in 7.0 mi North 18.4 mph 24.2 mph N/A   Overcast
4:55 AM 38.7 °F 29.8 °F 36.9 °F 93% 30.28 in 7.0 mi North 16.1 mph 20.7 mph N/A   Overcast
5:15 AM 38.5 °F 30.3 °F 36.5 °F 93% 30.29 in 10.0 mi North 13.8 mph 28.8 mph N/A   Overcast
5:35 AM 37.9 °F 30.5 °F 35.6 °F 91% 30.30 in 10.0 mi North 11.5 mph 25.3 mph N/A   Overcast
5:55 AM 37.9 °F 30.5 °F 35.6 °F 91% 30.31 in 10.0 mi North 11.5 mph 20.7 mph N/A   Overcast
6:15 AM 37.9 °F 27.6 °F 35.8 °F 92% 30.30 in 10.0 mi North 20.7 mph 28.8 mph N/A   Overcast
6:35 AM 37.8 °F 29.0 °F 35.6 °F 92% 30.33 in 10.0 mi North 15.0 mph 24.2 mph N/A   Overcast
6:55 AM 37.4 °F 27.2 °F 34.9 °F 91% 30.34 in 10.0 mi North 19.6 mph 25.3 mph N/A   Overcast
7:15 AM 36.7 °F 26.3 °F 35.2 °F 95% 30.31 in 7.0 mi North 19.6 mph 25.3 mph N/A Rain Light Rain
7:35 AM 36.1 °F 25.9 °F 34.3 °F 93% 30.34 in 10.0 mi North 18.4 mph 26.5 mph N/A Rain Rain
7:55 AM 35.6 °F 26.2 °F 34.0 °F 94% 30.35 in 5.0 mi North 15.0 mph 26.5 mph N/A Rain Light Rain
8:15 AM 35.6 °F 25.5 °F 33.8 °F 93% 30.35 in 7.0 mi North 17.3 mph 28.8 mph N/A   Overcast
8:35 AM 36.0 °F 27.5 °F 34.7 °F 95% 30.37 in 5.0 mi North 12.7 mph 20.7 mph N/A   Overcast
8:55 AM 35.6 °F 26.2 °F 33.1 °F 91% 30.40 in 10.0 mi North 15.0 mph 21.9 mph N/A   Overcast
9:15 AM 35.6 °F 25.9 °F 32.9 °F 90% 30.40 in 10.0 mi North 16.1 mph 21.9 mph N/A   Overcast
9:35 AM 35.6 °F 26.6 °F 33.3 °F 91% 30.38 in 4.0 mi North 13.8 mph 21.9 mph N/A Rain Rain
9:55 AM 35.6 °F 26.6 °F 34.0 °F 94% 30.38 in 3.0 mi North 13.8 mph 20.7 mph N/A Rain Rain
10:15 AM 35.6 °F 25.9 °F 34.0 °F 94% 30.38 in 3.0 mi North 16.1 mph 23.0 mph N/A   Light Drizzle
10:35 AM 35.1 °F 25.9 °F 33.6 °F 94% 30.40 in 5.0 mi North 13.8 mph 24.2 mph N/A   Overcast
10:55 AM 35.6 °F 25.9 °F 33.3 °F 91% 30.40 in 10.0 mi North 16.1 mph 21.9 mph N/A   Overcast
11:15 AM 35.8 °F 26.9 °F 34.5 °F 95% 30.39 in 5.0 mi North 13.8 mph 18.4 mph N/A   Overcast
11:35 AM 35.6 °F 27.1 °F 34.5 °F 96% 30.39 in 3.0 mi North 12.7 mph 18.4 mph N/A Rain Light Rain
11:55 AM 35.6 °F 28.0 °F 34.7 °F 97% 30.38 in 2.0 mi North 10.4 mph 18.4 mph N/A Rain Light Rain
12:15 PM 35.6 °F 27.5 °F 34.7 °F 97% 30.38 in 2.0 mi North 11.5 mph 20.7 mph N/A Rain Rain
12:35 PM 35.6 °F 26.2 °F 34.7 °F 97% 30.36 in 2.5 mi North 15.0 mph 21.9 mph 0.01 in Rain Light Rain
12:55 PM 35.6 °F 27.1 °F 34.7 °F 97% 30.37 in 4.0 mi NNW 12.7 mph 20.7 mph 0.01 in Rain Light Rain
1:15 PM 35.6 °F 26.6 °F 34.5 °F 96% 30.36 in 4.0 mi North 13.8 mph 20.7 mph 0.01 in Rain Rain
1:35 PM 35.6 °F 27.5 °F 34.2 °F 94% 30.36 in 7.0 mi North 11.5 mph 18.4 mph 0.01 in   Drizzle
1:55 PM 35.6 °F 27.1 °F 34.0 °F 94% 30.35 in 4.0 mi North 12.7 mph 19.6 mph 0.01 in   Light Drizzle
2:15 PM 35.6 °F 27.1 °F 34.3 °F 95% 30.35 in 3.0 mi North 12.7 mph 18.4 mph N/A   Heavy Drizzle
2:35 PM 35.6 °F 26.6 °F 34.3 °F 95% 30.35 in 4.0 mi North 13.8 mph 21.9 mph 0.01 in Rain Light Rain
2:55 PM 35.6 °F 26.6 °F 34.2 °F 94% 30.35 in 7.0 mi North 13.8 mph 21.9 mph 0.01 in   Drizzle
3:15 PM 35.6 °F 26.6 °F 33.8 °F 93% 30.35 in 7.0 mi North 13.8 mph 24.2 mph N/A   Drizzle
3:35 PM 36.0 °F 28.0 °F 34.5 °F 94% 30.36 in 10.0 mi North 11.5 mph 17.3 mph N/A Rain Rain
3:55 PM 35.6 °F 26.6 °F 33.8 °F 93% 30.36 in 10.0 mi North 13.8 mph 23.0 mph N/A   Light Drizzle
4:15 PM 35.4 °F 26.0 °F 33.8 °F 94% 30.35 in 5.0 mi North 15.0 mph 21.9 mph N/A   Light Drizzle
4:35 PM 35.1 °F 27.9 °F 33.8 °F 95% 30.36 in 3.0 mi North 9.2 mph 17.3 mph N/A Rain Light Rain
4:55 PM 34.9 °F 27.1 °F 33.6 °F 95% 30.36 in 5.0 mi North 10.4 mph 18.4 mph N/A   Overcast
5:15 PM 34.7 °F 25.5 °F 33.3 °F 94% 30.37 in 5.0 mi North 13.8 mph 19.6 mph N/A   Overcast
5:35 PM 34.5 °F 24.8 °F 33.1 °F 94% 30.37 in 4.0 mi North 15.0 mph 25.3 mph N/A   Overcast
5:55 PM 34.7 °F 26.9 °F 33.4 °F 95% 30.38 in 4.0 mi North 10.4 mph 19.6 mph N/A   Overcast
6:15 PM 34.7 °F 25.9 °F 33.8 °F 97% 30.38 in 3.0 mi North 12.7 mph 20.7 mph N/A   Drizzle
6:35 PM 34.9 °F 26.2 °F 34.0 °F 97% 30.39 in 3.0 mi North 12.7 mph 19.6 mph N/A Rain Light Rain
7:15 PM 35.1 °F 27.4 °F 34.0 °F 96% 30.39 in 3.0 mi North 10.4 mph 18.4 mph 0.03 in Rain Light Rain
7:35 PM 35.2 °F 27.1 °F 34.2 °F 96% 30.39 in 10.0 mi North 11.5 mph 19.6 mph 0.03 in Rain Light Rain
7:55 PM 35.2 °F 27.6 °F 34.0 °F 95% 30.40 in 7.0 mi North 10.4 mph 19.6 mph 0.03 in   Drizzle
8:15 PM 35.6 °F 27.5 °F 34.2 °F 94% 30.40 in 10.0 mi North 11.5 mph 18.4 mph N/A   Light Drizzle
8:35 PM 35.6 °F 28.6 °F 34.3 °F 95% 30.41 in 7.0 mi North 9.2 mph 18.4 mph N/A   Drizzle
8:55 PM 35.6 °F 27.5 °F 34.2 °F 94% 30.41 in 7.0 mi North 11.5 mph 20.7 mph N/A   Drizzle
9:15 PM 35.6 °F 26.6 °F 34.7 °F 97% 30.42 in 5.0 mi North 13.8 mph 19.6 mph N/A   Light Drizzle
9:35 PM 35.6 °F 27.5 °F 34.7 °F 97% 30.41 in 5.0 mi North 11.5 mph 21.9 mph N/A   Drizzle
9:55 PM 35.4 °F 26.4 °F 34.2 °F 95% 30.42 in 5.0 mi North 13.8 mph 21.9 mph N/A   Drizzle
10:15 PM 35.6 °F 28.0 °F 34.5 °F 96% 30.42 in 7.0 mi North 10.4 mph 19.6 mph N/A   Overcast
10:35 PM 35.6 °F 27.5 °F 34.7 °F 97% 30.42 in 10.0 mi North 11.5 mph 16.1 mph N/A   Light Drizzle
10:55 PM 35.6 °F 26.6 °F 34.3 °F 95% 30.42 in 7.0 mi North 13.8 mph 21.9 mph N/A   Light Drizzle
11:15 PM 35.6 °F 27.5 °F 34.3 °F 95% 30.43 in 5.0 mi North 11.5 mph 20.7 mph N/A   Light Drizzle
11:35 PM 35.6 °F 26.6 °F 34.3 °F 95% 30.43 in 5.0 mi North 13.8 mph 18.4 mph N/A Rain Rain
11:55 PM 35.6 °F 26.6 °F 34.3 °F 95% 30.42 in 5.0 mi North 13.8 mph - 0.01 in Rain Rain